Header for Extended Forecast Station List Page

Search by: ID | Name | Date | Parm | Value | Avg | % Avg
Sort by: ID | Name | Date | Parm | Value | Avg | % Avg

Enter search or view all records.

Click on id for station plot
#IDNameDateParmValueAvg% Avg
0HWRI1BIG LOST-AT HOWELL RANCH NEAR CHILLY10-21-2021DISCHARGE (KAF)122059
1MACI1BIG LOST-MACKAY RESERVOIR NEAR MACKAY10-21-2021INFLOW (KAF)214152
2HALI1BIG WOOD-AT HAILEY10-21-2021DISCHARGE (KAF)263867
3MAGI1BIG WOOD-MAGIC DAM10-21-2021INFLOW (KAF)122158
4BITM8BITTERROOT-NEAR MISSOULA10-21-2021DISCHARGE (KAF)12320759
5BONM8BLACKFOOT-NEAR BONNER10-21-2021DISCHARGE (KAF)10513379
6BIGI1BOISE-AT GLENWOOD BRIDGE10-21-2021DISCHARGE (KAF)536383
7LUCI1BOISE-LUCKY PEAK DAM10-21-2021INFLOW (KAF)508261
8PARI1BOISE-NEAR PARMA10-21-2021DISCHARGE (KAF)19820995
9HOTI1BRUNEAU-NEAR HOT SPRINGS10-21-2021DISCHARGE (KAF)162468
10BULO3BULLY CREEK-BULLY CREEK DAM10-21-2021INFLOW (KAF)162908
11BUDW1BUMPING-BUMPING LAKE DAM10-21-2021INFLOW (KAF)3939100
12CHDW1CHELAN-LAKE CHELAN DAM10-21-2021INFLOW (KAF)225192117
13ABOM8CLARK FORK-ABOVE MISSOULA10-21-2021DISCHARGE (KAF)28032586
14DLGM8CLARK FORK-AT DEER LODGE10-21-2021DISCHARGE (KAF)495196
15SRGM8CLARK FORK-AT ST REGIS10-21-2021DISCHARGE (KAF)51170872
16BELM8CLARK FORK-BELOW MISSOULA10-21-2021DISCHARGE (KAF)40353975
17CABI1CLARK FORK-CABINET GORGE DAM10-21-2021INFLOW (KAF)2516344073
18NOXM8CLARK FORK-NOXON RAPIDS DAM10-21-2021INFLOW (KAF)2293306875
19DRMM8CLARK FORK-NR DRUMMOND10-21-2021DISCHARGE (KAF)11612593
20CLUW1CLE ELUM-CLE ELUM LAKE10-21-2021INFLOW (KAF)134117114
21ORFI1CLEARWATER-AT OROFINO10-21-2021DISCHARGE (KAF)39270156
22SPDI1CLEARWATER-AT SPALDING10-21-2021DISCHARGE (KAF)838130564
23COEI1COEUR D ALENE-COEUR D ALENE LAKE10-21-2021INFLOW (KAF)34776245
24CIBW1COLUMBIA-AT INTL BOUNDARY10-21-2021DISCHARGE (KAF)177152022688
25BONO3COLUMBIA-BONNEVILLE DAM10-21-2021INFLOW (KAF)294403481785
26CHJW1COLUMBIA-CHIEF JOSEPH DAM10-21-2021INFLOW (KAF)205662295690
27GCDW1COLUMBIA-GRAND COULEE DAM10-21-2021INFLOW (KAF)185152128287
28JDAO3COLUMBIA-JOHN DAY DAM10-21-2021INFLOW (KAF)278963273285
29MCDW1COLUMBIA-MCNARY DAM10-21-2021INFLOW (KAF)266573165184
30PRWW1COLUMBIA-PRIEST RAPIDS DAM10-21-2021INFLOW (KAF)215032466387
31RRHW1COLUMBIA-ROCKY REACH DAM10-21-2021INFLOW (KAF)212112394889
32TDAO3COLUMBIA-THE DALLES DAM10-21-2021INFLOW (KAF)286253343386
33WANW1COLUMBIA-WANAPUM DAM10-21-2021INFLOW (KAF)215032459187
34WELW1COLUMBIA-WELLS DAM10-21-2021INFLOW (KAF)208912355689
35DEDI1DEADWOOD-NEAR LOWMAN10-21-2021INFLOW (KAF)131774
36MODO3DESCHUTES-AT MOODY NR BIGGS10-21-2021DISCHARGE (KAF)13851332104
37ARDW1ENTIAT-NEAR ARDENVOIR10-21-2021DISCHARGE (KAF)2625104
38CHEI1FALL RIVER-NEAR CHESTER10-21-2021DISCHARGE (KAF)10511889
39CFMM8FLATHEAD-AT COLUMBIA FALLS10-21-2021DISCHARGE (KAF)88393495
40KERM8FLATHEAD-SELI’Š KSANKA QLISPE’ DAM10-21-2021INFLOW (KAF)961132273
41TRYO3GRANDE RONDE-TROY10-21-2021DISCHARGE (KAF)23029777
42REXI1HENRYS FORK-AT REXBURG10-21-2021DISCHARGE (KAF)39642693
43ANTI1HENRYS FORK-AT ST. ANTHONY10-21-2021DISCHARGE (KAF)31636985
44IPDI1HENRYS FORK-ISLAND PARK DAM10-21-2021INFLOW (KAF)8210777
45HODO3HOOD-NEAR TUCKER BRIDGE10-21-2021DISCHARGE (KAF)250212118
46SERO3JOHN DAY-AT SERVICE CK10-21-2021DISCHARGE (KAF)17517799
47KADW1KACHESS-KACHESS DAM10-21-2021INFLOW (KAF)5250104
48LAUW1KETTLE-AT LAURIER10-21-2021DISCHARGE (KAF)9312177
49PITW1KLICKITAT-NEAR PITT10-21-2021DISCHARGE (KAF)289284102
50BFEI1KOOTENAI-AT BONNERS FERRY10-21-2021STAGE (FT)MMM
51LEOI1KOOTENAI-AT LEONIA10-21-2021DISCHARGE (KAF)2000265675
52LYDM8KOOTENAI-LIBBY DAM10-21-2021INFLOW (KAF)77892085
53LWRI1LITTLE WOOD-LITTLE WOOD DAM10-21-2021INFLOW (KAF)111390
54BERO3MALHEUR-AGENCY VALLEY DAM10-21-2021INFLOW (KAF)101662
55WRMO3MALHEUR-WARM SPRINGS DAM10-21-2021INFLOW (KAF)172084
56MYKO3MCKAY CREEK-NEAR PILOT ROCK10-21-2021DISCHARGE (KAF)2518135
57PATW1METHOW-NEAR PATEROS10-21-2021DISCHARGE (KAF)8110477
58WGCM8MF FLATHEAD-NEAR WEST GLACIER10-21-2021DISCHARGE (KAF)5316332
59CLFW1NACHES-NEAR CLIFFDEL10-21-2021DISCHARGE (KAF)8811477
60NACW1NACHES-NEAR NACHES10-21-2021DISCHARGE (KAF)6614645
61DWRI1NF CLEARWATER-DWORSHAK DAM10-21-2021INFLOW (KAF)30655555
62FCFM8NF FLATHEAD-NEAR COLUMBIA FALLS10-21-2021DISCHARGE (KAF)13118571
63MONO3NF JOHN DAY-AT MONUMENT10-21-2021DISCHARGE (KAF)929795
64CSDI1NF PAYETTE-CASCADE DAM10-21-2021INFLOW (KAF)9287106
65TONW1OKANOGAN-NEAR TONASKET10-21-2021DISCHARGE (KAF)25129585
66OWYO3OWYHEE-OWYHEE DAM10-21-2021INFLOW (KAF)688877
67EMMI1PAYETTE-NEAR EMMETT10-21-2021DISCHARGE (KAF)25627593
68ALFW1PEND OREILLE-ALBENI FALLS DAM10-21-2021INFLOW (KAF)2779383472
69HOPI1PEND OREILLE-PEND OREILLE LAKE NR HOPE10-21-2021LAKE ELEVATION (FT)MMM
70PIHI1PORTNEUF-AT POCATELLO10-21-2021DISCHARGE (KAF)374778
71PRTI1PRIEST-NEAR PRIEST RIVER10-21-2021DISCHARGE (KAF)16524567
72RCCM8ROCK CREEK-NEAR CLINTON10-21-2021DISCHARGE (KAF)464699
73WHBI1SALMON-AT WHITEBIRD10-21-2021DISCHARGE (KAF)780102776
74ARAI1SF BOISE-ANDERSON RANCH DAM10-21-2021INFLOW (KAF)597084
75HHWM8SF FLATHEAD-HUNGRY HORSE DAM10-21-2021INFLOW (KAF)14223161
76PLDI1SF SNAKE-PALISADES DAM10-21-2021INFLOW (KAF)52261085
77SIFI1SNAKE-AB EAGLE ROCK NR IDAHO FALLS10-21-2021DISCHARGE (KAF)52168676
78AFRI1SNAKE-AMERICAN FALLS RESERVOIR10-21-2021INFLOW (KAF)1110119593
79SNAI1SNAKE-AT BLACKFOOT10-21-2021DISCHARGE (KAF)43961072
80MILI1SNAKE-AT MILNER10-21-2021DISCHARGE (KAF)M55M
81WEII1SNAKE-AT WEISER10-21-2021DISCHARGE (KAF)2598272995
82SWAI1SNAKE-BELOW SWAN FALLS10-21-2021DISCHARGE (KAF)1788185596
83BRNI1SNAKE-BROWNLEE DAM10-21-2021INFLOW (KAF)2800286898
84IHDW1SNAKE-ICE HARBOR DAM10-21-2021INFLOW (KAF)4514592376
85JLKW4SNAKE-JACKSON LAKE AT DAM10-21-2021INFLOW (KAF)8211273
86LGSW1SNAKE-LITTLE GOOSE DAM10-21-2021INFLOW (KAF)4462584976
87LGDW1SNAKE-LOWER GRANITE DAM10-21-2021INFLOW (KAF)4462580777
88LMNW1SNAKE-LOWER MONUMENTAL DAM10-21-2021INFLOW (KAF)4514589477
89ALPW4SNAKE-NEAR ALPINE10-21-2021DISCHARGE (KAF)33639884
90ANAW1SNAKE-NEAR ANATONE10-21-2021DISCHARGE (KAF)3624444082
91BFTI1SNAKE-NEAR BLACKFOOT10-21-2021DISCHARGE (KAF)45859976
92HEII1SNAKE-NEAR HEISE10-21-2021DISCHARGE (KAF)29540573
93JKSW4SNAKE-NEAR JACKSON10-21-2021DISCHARGE (KAF)27632984
94SHYI1SNAKE-NEAR SHELLEY10-21-2021DISCHARGE (KAF)52170474
95LLKW1SPOKANE-AT LONGLAKE10-21-2021INFLOW (KAF)629115854
96SPOW1SPOKANE-AT SPOKANE10-21-2021DISCHARGE (KAF)44395946
97SJMI1ST JOE-AT ST MARIES10-21-2021STAGE (FT)MMM
98SATI1ST MARIES-NEAR SANTA10-21-2021DISCHARGE (KAF)153939
99STRM8ST. REGIS-NEAR ST. REGIS10-21-2021DISCHARGE (KAF)173352
100TNAW1TEANAWAY-BELOW FORKS10-21-2021DISCHARGE (KAF)264164
101TEAI1TETON-NEAR ST. ANTHONY10-21-2021DISCHARGE (KAF)9010189
102RILW1TIETON-RIMROCK LAKE NEAR RIMROCK10-21-2021INFLOW (KAF)427159
103PDTO3UMATILLA-AT PENDLETON10-21-2021DISCHARGE (KAF)9680121
104GIBO3UMATILLA-NEAR GIBBON10-21-2021DISCHARGE (KAF)3534101
105UMAO3UMATILLA-NEAR UMATILLA10-21-2021DISCHARGE (KAF)14289159
106TCHW1WALLA WALLA-NEAR TOUCHET10-21-2021DISCHARGE (KAF)10012282
107WSRI1WEISER-NEAR WEISER10-21-2021DISCHARGE (KAF)518063
108PESW1WENATCHEE-AT PESHASTIN10-21-2021DISCHARGE (KAF)30832695
109UNDW1WHITE SALMON-NEAR UNDERWOOD10-21-2021DISCHARGE (KAF)233230101
110RIDI1WILLOW CREEK-RIRIE DAM10-21-2021INFLOW (KAF)101186
111EASW1YAKIMA-AT EASTON10-21-2021DISCHARGE (KAF)677293
112KIOW1YAKIMA-AT KIONA10-21-2021DISCHARGE (KAF)58170682
113UMTW1YAKIMA-AT UMTANUM10-21-2021DISCHARGE (KAF)22028078
114KEDW1YAKIMA-KEECHELUS LAKE10-21-2021INFLOW (KAF)535596
115PARW1YAKIMA-NEAR PARKER10-21-2021DISCHARGE (KAF)40448583